Location: Pasadena, ca
(34.1243°N, 118.1037°W)
Time: 09:35:55
(UTC-08:00)

Tiangong 2 - Visible Passes

Search period start: 19 February 2018 00:00
Search period end: 01 March 2018 00:00
Orbit: 384 x 388 km, 42.8° (Epoch: 19 February)

Date Brightness Start Highest point End Pass type
(mag) Time Alt. Az. Time Alt. Az. Time Alt. Az.
19 Feb 3.1 19:28:19 10° NW 19:29:54 25° NW 19:29:54 25° NW visible
20 Feb 2.3 18:29:30 10° NW 18:32:20 29° NNE 18:33:56 19° ENE visible
20 Feb 4.7 20:06:08 10° WNW 20:06:13 11° WNW 20:06:13 11° WNW visible
21 Feb 0.9 19:07:06 10° WNW 19:10:17 86° NE 19:10:21 84° E visible
22 Feb 1.5 18:08:11 10° NW 18:11:16 46° NNE 18:14:21 10° E visible
22 Feb 3.8 19:45:22 10° W 19:46:52 19° WSW 19:46:52 19° WSW visible
23 Feb 2.0 18:46:00 10° WNW 18:49:02 44° SW 18:51:15 16° SE visible
24 Feb 4.2 19:25:38 10° WSW 19:26:29 11° SW 19:27:20 10° SSW visible
25 Feb 3.5 18:25:10 10° W 18:27:41 21° SW 18:30:10 10° SSE visible
